This is the latest recevied weather packets stored in our database for station/object DL9TK-10. If no packets are shown the sender has not sent any weather packets the latest 1 day(s).
| Time | Temp. | Humidity | Pressure | Rain* | Wind** | Luminosity | Snow |
|---|---|---|---|---|---|---|---|
| 1777788721 | 18.33° C | 47% | 1012.6 hPa | - | - | - | - |
| 1777787821 | 17.78° C | 48% | 1012.5 hPa | - | - | - | - |
| 1777786921 | 17.78° C | 48% | 1012.5 hPa | - | - | - | - |
| 1777786021 | 17.78° C | 49% | 1012.5 hPa | - | - | - | - |
| 1777785121 | 17.78° C | 47% | 1012.4 hPa | - | - | - | - |
| 1777784221 | 17.78° C | 47% | 1012.4 hPa | - | - | - | - |
| 1777783321 | 17.78° C | 47% | 1012.3 hPa | - | - | - | - |
| 1777782421 | 17.78° C | 47% | 1012.3 hPa | - | - | - | - |
| 1777781520 | 17.78° C | 47% | 1012.4 hPa | - | - | - | - |
| 1777780620 | 18.33° C | 45% | 1012.4 hPa | - | - | - | - |
| 1777779720 | 17.78° C | 46% | 1012.4 hPa | - | - | - | - |
| 1777778820 | 18.33° C | 46% | 1012.4 hPa | - | - | - | - |
| 1777777920 | 18.33° C | 45% | 1012.3 hPa | - | - | - | - |
| 1777777020 | 18.89° C | 43% | 1012.3 hPa | - | - | - | - |
| 1777776120 | 18.89° C | 44% | 1012.5 hPa | - | - | - | - |
| 1777775220 | 18.33° C | 45% | 1012.6 hPa | - | - | - | - |
| 1777774320 | 18.89° C | 44% | 1012.7 hPa | - | - | - | - |
| 1777773420 | 18.89° C | 44% | 1013 hPa | - | - | - | - |
| 1777772520 | 18.89° C | 44% | 1013.3 hPa | - | - | - | - |
| 1777771620 | 18.89° C | 44% | 1013.6 hPa | - | - | - | - |
| 1777770720 | 18.89° C | 45% | 1013.8 hPa | - | - | - | - |
| 1777769819 | 19.44° C | 42% | 1014 hPa | - | - | - | - |
| 1777768919 | 19.44° C | 42% | 1014.3 hPa | - | - | - | - |
| 1777768019 | 20° C | 41% | 1014.8 hPa | - | - | - | - |
| 1777767119 | 20° C | 40% | 1015.1 hPa | - | - | - | - |
* Rain since midnight (hover to see other rain measurements)
** Current wind speed in m/s (hover to see current wind gust speed)